Location: Carrières
(48.9495°N, 2.0407°E)
Time: 11:24:45
(UTC+00:00)

SL-16 R/B - Visible Passes

Search period start: 28 September 2023 00:00
Search period end: 08 October 2023 00:00
Orbit: 841 x 846 km, 71.0° (Epoch: 28 September)

Date Brightness Start Highest point End Pass type
(mag) Time Alt. Az. Time Alt. Az. Time Alt. Az.
28 Sep 4.1 01:07:03 10° NNW 01:10:43 26° NNE 01:10:43 26° NNE visible
28 Sep 4.0 02:50:52 10° NNW 02:52:27 19° NW 02:52:27 19° NW visible
28 Sep 4.8 19:33:24 10° WNW 19:37:08 18° NW 19:40:53 10° N visible
29 Sep 4.3 00:52:38 10° NNW 00:55:15 22° N 00:55:15 22° N visible
29 Sep 4.4 02:36:25 10° NNW 02:37:01 13° NW 02:37:01 13° NW visible
29 Sep 4.8 19:18:51 10° W 19:22:39 18° NW 19:26:28 10° N visible
30 Sep 4.5 00:38:13 10° NNW 00:40:11 18° N 00:40:11 18° N visible
30 Sep 4.7 02:21:58 10° NNW 02:21:59 10° NNW 02:21:59 10° NNW visible
30 Sep 4.7 19:04:17 10° W 19:08:10 18° NW 19:12:04 10° N visible
01 Oct 4.7 00:23:47 10° NNW 00:25:20 16° N 00:25:20 16° N visible
01 Oct 4.7 18:49:44 10° W 18:53:41 19° NW 18:57:39 10° N visible
02 Oct 4.8 00:09:22 10° NNW 00:10:36 15° N 00:10:36 15° N visible
02 Oct 4.7 18:35:12 10° W 18:39:12 19° NW 18:43:14 10° N visible
02 Oct 4.9 23:54:57 10° NNW 23:55:59 14° N 23:55:59 14° N visible
03 Oct 4.6 18:20:39 10° W 18:24:43 20° NW 18:28:50 10° N visible
03 Oct 4.9 23:40:32 10° N 23:41:25 14° N 23:41:25 14° N visible
04 Oct 4.6 18:06:06 10° W 18:10:15 20° NW 18:14:24 10° N visible
04 Oct 4.9 23:26:07 10° N 23:26:55 13° N 23:26:55 13° N visible
05 Oct 4.5 17:51:34 10° W 17:55:46 21° NW 17:59:59 10° N visible
05 Oct 5.0 23:11:42 10° N 23:12:27 13° N 23:12:27 13° N visible
06 Oct 5.0 22:57:16 10° N 22:58:01 13° N 22:58:01 13° N visible
07 Oct 4.9 22:42:52 10° N 22:43:37 13° N 22:43:37 13° N visible
